Regional Weather Roundup
Issued by NWS Portland, ME

Home | Current Version | Previous Version | Text Only | Print | Product List | Glossary On
Versions: 1 2 3 4 5 6 7 8 9 10 11 12 13 14 15 16 17 18 19 20 21 22 23 24 25 26 27 28 29 30 31 32 33 34 35 36 37 38 39 40 41 42 43 44 45 46 47 48 49 50
000
ASUS41 KGYX 250010
RWRGYX
WEATHER ROUNDUP FOR MAINE AND NEW HAMPSHIRE
NATIONAL WEATHER SERVICE GRAY ME
700 PM EST WED DEC 24 2014

MEZ002-005-006-010-012-015-018-020-021-024-026-027-029-250100-
MAINE

CITY           SKY/WX    TMP DP  RH WIND       PRES   REMARKS
PORTLAND       LGT RAIN  38  37  97 NW7       29.80F FOG
6HR MIN TEMP:  38; 6HR MAX TEMP:  40; 6HR PCP:  0.30;

SANFORD        CLOUDY    36  32  87 N8        29.78F
BAR HARBOR     CLOUDY    46  46 100 E6        29.83F
WISCASSET      RAIN      39  38  96 CALM      29.81F FOG
6HR MIN TEMP:  38; 6HR MAX TEMP:  40; 6HR PCP:  0.18;

ROCKLAND       CLOUDY    46  46 100 NE9       29.79F
FRYEBURG       LGT RAIN  35  35 100 CALM      29.80F FOG
6HR MIN TEMP:  35; 6HR MAX TEMP:  37; 6HR PCP:  0.38;

LEWISTONAUBURN CLOUDY    34  32  93 N7        29.79F
AUGUSTA        LGT RAIN  33  33 100 N9        29.80F FOG
6HR MIN TEMP:  33; 6HR MAX TEMP:  34; 6HR PCP:  0.14;

WATERVILLE     CLOUDY    34  30  86 N7        29.79F
BANGOR         LGT RAIN  36  36 100 N5        29.82F VSB 1
6HR MIN TEMP:  36; 6HR MAX TEMP:  37; 6HR PCP:  0.10;

GREENVILLE       N/A     33  33 100 SE7       29.74F
6HR MIN TEMP:  32; 6HR MAX TEMP:  33; 6HR PCP:  0.21;

MILLINOCKET    LGT RAIN  34  33  96 CALM      29.85F FOG
6HR MIN TEMP:  33; 6HR MAX TEMP:  34; 6HR PCP:  0.22;

HOULTON        LGT RAIN  34  32  92 SE6       29.84F FOG
6HR MIN TEMP:  33; 6HR MAX TEMP:  34; 6HR PCP:  0.18;

PRESQUE ISLE   CLOUDY    36  30  80 S7        29.83F
6HR MIN TEMP:  34; 6HR MAX TEMP:  36; 6HR PCP:  0.19;

FRENCHVILLE    FRZ RAIN  31  31 100 SE10      29.80F VSB 1
6HR MIN TEMP:  30; 6HR MAX TEMP:  31; 6HR PCP:  0.15;

CARIBOU        LGT RAIN  33  33 100 SE3       29.82F FOG
6HR MIN TEMP:  33; 6HR MAX TEMP:  34; 6HR PCP:  0.27;

$$

NHZ002-005-008-009-011-012-014-250100-
NEW HAMPSHIRE

CITY           SKY/WX    TMP DP  RH WIND       PRES   REMARKS
PORTSMOUTH     RAIN      40  38  95 NW5       29.75F FOG
ROCHESTER      RAIN      38  36  92 N9        29.76F FOG
6HR MIN TEMP:  38; 6HR MAX TEMP:  38; 6HR PCP:  0.30;

NASHUA         LGT RAIN  39  39 100 CALM      29.76F FOG
MANCHESTER     LGT RAIN  40  39  97 N5        29.73F FOG
6HR MIN TEMP:  39; 6HR MAX TEMP:  40; 6HR PCP:  0.26;

CONCORD        LGT RAIN  37  37 100 NW5       29.77F FOG
6HR MIN TEMP:  37; 6HR MAX TEMP:  39; 6HR PCP:  0.30;

PLYMOUTH       RAIN      36  36 100 CALM      29.76F VSB 1
BERLIN         LGT RAIN  41  37  86 CALM      29.73F FOG
6HR MIN TEMP:  38; 6HR MAX TEMP:  41; 6HR PCP:  0.22;

WHITEFIELD     LGT RAIN  39  38  96 W5        29.69F FOG
6HR MIN TEMP:  39; 6HR MAX TEMP:  47; 6HR PCP:  0.22;

JAFFREY        RAIN      36  35  96 N6        29.73F FOG
6HR MIN TEMP:  36; 6HR MAX TEMP:  37; 6HR PCP:  0.25;

KEENE          CLOUDY    39  37  93 CALM      29.72F
LEBANON        LGT RAIN  35  34  96 CALM      29.70F FOG
6HR MIN TEMP:  34; 6HR MAX TEMP:  38; 6HR PCP:  0.24;

MT WASHINGTON  RAIN      37  37 100 SW36G48     N/A  VSB 0
6HR MIN TEMP:  35; 6HR MAX TEMP:  40; 6HR PCP:  0.28;

$$

VTZ005-007-008-250100-
VERMONT

CITY           SKY/WX    TMP DP  RH WIND       PRES   REMARKS
ST JOHNSBURY     N/A     36  36 100 MISG      29.69F
MONTPELIER     LGT RAIN  39  37  92 S7        29.71F
BURLINGTON     LGT RAIN  44  41  89 S9        29.60F
$$

MAZ007-012-024-CTZ003-RIZ002-NYZ038-NYZ072-250100-
SOUTHERN NEW ENGLAND AND NY

CITY           SKY/WX    TMP DP  RH WIND       PRES   REMARKS
BOSTON         LGT RAIN  46  46 100 N6        29.75F FOG
WORCESTER      RAIN      39  39 100 NE7       29.72F FOG
NANTUCKET      LGT RAIN  56  55  97 S21G28    29.80F VSB 1/4
PROVIDENCE     LGT RAIN  49  48  97 CALM      29.73F FOG
HARTFORD       RAIN      43  41  93 CALM      29.70F FOG
ALBANY         LGT RAIN  47  45  93 CALM      29.61F FOG
NEW YORK CITY  FOG       55  54  94 S15       29.61F VSB 1/2
$$

ANZ081-ANZ082-ANZ150-NHZ014-MEZ023>029-250100-
COASTAL MARINE OBSERVATIONS

STATION/POSITION TIME  TEMP    WIND        PRES    WAVE
                       AIR SEA DIR/SP/G            HT/PER
                 (UTC) (F)     (DEG/KT/KT) (MB)    (FT/S)
MOUNT DESERT ROC 0000   50                 1009.7F
MATINICUS ROCK   0000          150/ 17/ 18 1008.5F
PORTLAND WX BUOY 2350   40 43   10/ 14/ 16 1008.3F   5/ 8
WELLS            2318   38 39   10/  8/ 10 1008.1F
ISLE OF SHOALS   0000   42      30/ 16/ 18 1006.5F
JEFFREYS LEDGE   2321      49                N/A     5/ 8
CASHES LEDGE BUO 2350   51 49  160/ 16/ 19 1007.9F   5/ 8
$$

.............KEY..............
   WCI - WIND CHILL
   TC  - TEMPERATURE IN CELSIUS
   VSB - VISIBILITY IN MILES
   HX  - HEAT INDEX
   FAIR- INDICATES FEW OR NO CLOUDS BELOW 12,000 FT, WITH NO
         SIGNIFICANT WEATHER AND/OR OBSTRUCTIONS TO VISIBILITY.





USA.gov is the U.S. government's official web portal to all federal, state and local government web resources and services.